• In Portugal
  • List of Countries
  • For 7 days
  • Water Temperature
  • Satellite Maps
  • Weather Map
  • Weather Widgets
  • user-avatar
    Login

    Hourly Weather Amar

    Today, 16 July, Monday

    Time Temperature Precipitation Wind Pressure Humidity
    00:00 +40°C° 0 mm 4 mps 744 mmHg 28%
    01:00 +40°C° 0 mm 4 mps 743 mmHg 28%
    02:00 +38°C° 0 mm 4 mps 743 mmHg 29%
    03:00 +37°C° 0 mm 2 mps 743 mmHg 27%
    04:00 +38°C° 0 mm 3 mps 743 mmHg 26%
    05:00 +38°C° 0 mm 4 mps 743 mmHg 26%
    06:00 +38°C° 0 mm 4 mps 744 mmHg 25%
    07:00 +41°C° 0 mm 4 mps 744 mmHg 21%
    08:00 +43°C° 0 mm 5 mps 744 mmHg 18%
    09:00 +46°C° 0 mm 5 mps 744 mmHg 15%
    10:00 +47°C° 0 mm 5 mps 744 mmHg 14%
    11:00 +48°C° 0 mm 5 mps 744 mmHg 14%
    12:00 +49°C° 0 mm 4 mps 744 mmHg 13%
    13:00 +49°C° 0 mm 5 mps 744 mmHg 14%
    14:00 +49°C° 0 mm 5 mps 743 mmHg 15%
    15:00 +48°C° 0 mm 5 mps 743 mmHg 16%
    16:00 +47°C° 0 mm 6 mps 743 mmHg 19%
    17:00 +46°C° 0 mm 6 mps 743 mmHg 23%
    18:00 +44°C° 0 mm 7 mps 743 mmHg 26%
    19:00 +42°C° 0 mm 6 mps 743 mmHg 28%
    20:00 +41°C° 0 mm 5 mps 743 mmHg 31%
    21:00 +41°C° 0 mm 4 mps 743 mmHg 33%
    22:00 +40°C° 0 mm 4 mps 743 mmHg 32%
    23:00 +39°C° 0 mm 3 mps 743 mmHg 31%

    Tomorrow, 17 July, Tuesday

    Time Temperature Precipitation Wind Pressure Humidity
    00:00 +38°C° 0 mm 2 mps 743 mmHg 30%
    01:00 +38°C° 0 mm 3 mps 743 mmHg 30%
    02:00 +38°C° 0 mm 4 mps 743 mmHg 30%
    03:00 +39°C° 0 mm 5 mps 742 mmHg 29%
    04:00 +39°C° 0 mm 5 mps 743 mmHg 28%
    05:00 +39°C° 0 mm 5 mps 743 mmHg 27%
    06:00 +39°C° 0 mm 6 mps 743 mmHg 25%
    07:00 +42°C° 0 mm 6 mps 743 mmHg 22%
    08:00 +45°C° 0 mm 6 mps 744 mmHg 18%
    09:00 +47°C° 0 mm 6 mps 744 mmHg 14%
    10:00 +48°C° 0 mm 6 mps 744 mmHg 13%
    11:00 +48°C° 0 mm 6 mps 744 mmHg 13%
    12:00 +49°C° 0 mm 6 mps 743 mmHg 12%
    13:00 +49°C° 0 mm 6 mps 743 mmHg 14%
    14:00 +49°C° 0 mm 7 mps 743 mmHg 16%
    15:00 +49°C° 0 mm 8 mps 743 mmHg 19%
    16:00 +48°C° 0 mm 8 mps 743 mmHg 20%
    17:00 +46°C° 0 mm 7 mps 743 mmHg 21%
    18:00 +45°C° 0 mm 7 mps 742 mmHg 22%
    19:00 +44°C° 0 mm 6 mps 743 mmHg 25%
    20:00 +42°C° 0 mm 5 mps 743 mmHg 27%
    21:00 +41°C° 0 mm 4 mps 744 mmHg 30%
    22:00 +39°C° 0 mm 3 mps 744 mmHg 31%
    23:00 +39°C° 0 mm 3 mps 744 mmHg 31%

    Day after tomorrow, 18 July, Wednesday

    Time Temperature Precipitation Wind Pressure Humidity
    00:00 +38°C° 0 mm 2 mps 744 mmHg 32%
    01:00 +38°C° 0 mm 3 mps 743 mmHg 31%
    02:00 +38°C° 0 mm 4 mps 743 mmHg 30%
    03:00 +38°C° 0 mm 4 mps 743 mmHg 29%
    04:00 +39°C° 0 mm 5 mps 744 mmHg 29%
    05:00 +39°C° 0 mm 5 mps 744 mmHg 29%
    06:00 +39°C° 0 mm 5 mps 744 mmHg 28%
    07:00 +41°C° 0 mm 6 mps 744 mmHg 24%
    08:00 +44°C° 0 mm 6 mps 744 mmHg 20%
    09:00 +46°C° 0 mm 7 mps 745 mmHg 16%
    10:00 +47°C° 0 mm 7 mps 745 mmHg 15%
    11:00 +48°C° 0 mm 6 mps 745 mmHg 13%
    12:00 +49°C° 0 mm 6 mps 745 mmHg 12%
    13:00 +49°C° 0 mm 7 mps 744 mmHg 13%
    14:00 +49°C° 0 mm 7 mps 744 mmHg 14%
    15:00 +49°C° 0 mm 7 mps 744 mmHg 15%
    16:00 +46°C° 0 mm 7 mps 744 mmHg 17%
    17:00 +45°C° 0 mm 6 mps 744 mmHg 19%
    18:00 +43°C° 0 mm 5 mps 744 mmHg 21%
    19:00 +42°C° 0 mm 4 mps 744 mmHg 24%
    20:00 +40°C° 0 mm 3 mps 744 mmHg 26%
    21:00 +39°C° 0 mm 2 mps 745 mmHg 28%
    22:00 +38°C° 0 mm 2 mps 745 mmHg 28%
    23:00 +38°C° 0 mm 3 mps 744 mmHg 27%

    19 July, Thursday

    Time Temperature Precipitation Wind Pressure Humidity
    00:00 +38°C° 0 mm 3 mps 744 mmHg 26%
    01:00 +38°C° 0 mm 3 mps 744 mmHg 26%
    02:00 +38°C° 0 mm 4 mps 744 mmHg 25%
    03:00 +38°C° 0 mm 4 mps 744 mmHg 25%
    04:00 +39°C° 0 mm 5 mps 744 mmHg 25%
    05:00 +39°C° 0 mm 5 mps 744 mmHg 25%
    06:00 +39°C° 0 mm 5 mps 745 mmHg 25%
    07:00 +41°C° 0 mm 5 mps 745 mmHg 21%
    08:00 +44°C° 0 mm 6 mps 745 mmHg 17%
    09:00 +46°C° 0 mm 6 mps 745 mmHg 13%
    10:00 +47°C° 0 mm 6 mps 745 mmHg 12%
    11:00 +50°C° 0 mm 7 mps 745 mmHg 10%
    12:00 +51°C° 0 mm 7 mps 744 mmHg 9%
    13:00 +49°C° 0 mm 6 mps 744 mmHg 10%
    14:00 +49°C° 0 mm 6 mps 744 mmHg 11%
    15:00 +49°C° 0 mm 6 mps 743 mmHg 12%
    16:00 +47°C° 0 mm 6 mps 743 mmHg 15%
    17:00 +46°C° 0 mm 6 mps 743 mmHg 18%
    18:00 +43°C° 0 mm 5 mps 743 mmHg 22%
    19:00 +42°C° 0 mm 4 mps 744 mmHg 24%
    20:00 +40°C° 0 mm 3 mps 744 mmHg 27%
    21:00 +39°C° 0 mm 2 mps 744 mmHg 29%
    22:00 +39°C° 0 mm 2 mps 744 mmHg 28%
    23:00 +39°C° 0 mm 3 mps 744 mmHg 27%

    20 July, Friday

    Time Temperature Precipitation Wind Pressure Humidity
    00:00 +39°C° 0 mm 3 mps 743 mmHg 26%
    01:00 +40°C° 0 mm 4 mps 743 mmHg 25%
    02:00 +40°C° 0 mm 4 mps 743 mmHg 24%
    03:00 +40°C° 0 mm 5 mps 743 mmHg 23%
    04:00 +40°C° 0 mm 5 mps 743 mmHg 22%
    05:00 +40°C° 0 mm 6 mps 743 mmHg 22%
    06:00 +40°C° 0 mm 6 mps 743 mmHg 21%
    07:00 +43°C° 0 mm 7 mps 744 mmHg 20%
    08:00 +44°C° 0 mm 7 mps 744 mmHg 19%
    09:00 +46°C° 0 mm 8 mps 744 mmHg 17%
    10:00 +48°C° 0 mm 8 mps 744 mmHg 16%
    11:00 +49°C° 0 mm 8 mps 743 mmHg 15%
    12:00 +50°C° 0 mm 8 mps 743 mmHg 14%
    13:00 +50°C° 0 mm 8 mps 743 mmHg 15%
    14:00 +49°C° 0 mm 8 mps 742 mmHg 16%
    15:00 +49°C° 0 mm 8 mps 742 mmHg 17%
    16:00 +47°C° 0 mm 7 mps 742 mmHg 18%
    17:00 +46°C° 0 mm 7 mps 742 mmHg 20%
    18:00 +45°C° 0 mm 6 mps 742 mmHg 21%
    19:00 +43°C° 0 mm 5 mps 742 mmHg 23%
    20:00 +42°C° 0 mm 4 mps 743 mmHg 25%
    21:00 +40°C° 0 mm 3 mps 743 mmHg 27%
    22:00 +41°C° 0 mm 4 mps 743 mmHg 26%
    23:00 +41°C° 0 mm 4 mps 743 mmHg 25%

    21 July, Saturday

    Time Temperature Precipitation Wind Pressure Humidity
    00:00 +41°C° 0 mm 5 mps 742 mmHg 24%
    01:00 +41°C° 0 mm 5 mps 742 mmHg 24%
    02:00 +41°C° 0 mm 6 mps 742 mmHg 23%
    03:00 +41°C° 0 mm 7 mps 742 mmHg 22%
    04:00 +41°C° 0 mm 8 mps 742 mmHg 24%
    05:00 +41°C° 0 mm 8 mps 743 mmHg 25%
    06:00 +42°C° 0 mm 9 mps 743 mmHg 26%
    07:00 +43°C° 0 mm 9 mps 743 mmHg 23%
    08:00 +45°C° 0 mm 9 mps 743 mmHg 20%
    09:00 +47°C° 0 mm 9 mps 744 mmHg 17%
    10:00 +48°C° 0 mm 9 mps 743 mmHg 16%
    11:00 +49°C° 0 mm 9 mps 743 mmHg 15%
    12:00 +50°C° 0 mm 9 mps 743 mmHg 15%
    13:00 +49°C° 0 mm 9 mps 743 mmHg 16%
    14:00 +49°C° 0 mm 9 mps 743 mmHg 17%
    15:00 +48°C° 0 mm 9 mps 742 mmHg 18%
    16:00 +46°C° 0 mm 8 mps 742 mmHg 20%
    17:00 +45°C° 0 mm 7 mps 743 mmHg 21%
    18:00 +44°C° 0 mm 6 mps 743 mmHg 23%
    19:00 +43°C° 0 mm 5 mps 743 mmHg 25%
    20:00 +42°C° 0 mm 5 mps 743 mmHg 27%
    21:00 +41°C° 0 mm 4 mps 743 mmHg 29%
    22:00 +41°C° 0 mm 4 mps 743 mmHg 28%
    23:00 +41°C° 0 mm 4 mps 743 mmHg 28%
    Show more